| time (UTC) | temp F | wind direction | speed MPH | gust MPH | rain 1hr in | rain 24hr in | rain mn in | humidity % | barometer mb |
| 20260503020519 | 65 | 0.0 | 0.0 | 0.00 | 0.00 | 0.00 | 14 | 1015.8 | |
| 20260503015519 | 66 | 0.0 | 1.0 | 0.00 | 0.00 | 0.00 | 12 | 1015.0 | |
| 20260503014519 | 67 | 0.0 | 1.0 | 0.00 | 0.00 | 0.00 | 12 | 1015.0 | |
| 20260503013518 | 67 | 0.0 | 2.0 | 0.00 | 0.00 | 0.00 | 11 | 1015.2 | |
| 20260503012519 | 68 | 135 | 1.0 | 3.0 | 0.00 | 0.00 | 0.00 | 10 | 1014.1 |
| 20260503011519 | 68 | 158 | 1.0 | 3.0 | 0.00 | 0.00 | 0.00 | 11 | 1014.0 |
| 20260503010519 | 68 | 0.0 | 2.0 | 0.00 | 0.00 | 0.00 | 11 | 1014.1 | |
| 20260503005519 | 69 | 0.0 | 2.0 | 0.00 | 0.00 | 0.00 | 11 | 1013.8 | |
| 20260503004518 | 69 | 135 | 1.0 | 2.0 | 0.00 | 0.00 | 0.00 | 10 | 1013.9 |
| 20260503003538 | 69 | 0.0 | 2.0 | 0.00 | 0.00 | 0.00 | 10 | 1013.9 | |
| 20260503002519 | 69 | 0.0 | 1.0 | 0.00 | 0.00 | 0.00 | 11 | 1014.0 | |
| 20260503001518 | 69 | 0.0 | 3.0 | 0.00 | 0.00 | 0.00 | 13 | 1014.1 | |
| 20260503000519 | 69 | 113 | 1.0 | 3.0 | 0.00 | 0.00 | 0.00 | 10 | 1014.2 |
| 20260502235518 | 70 | 158 | 2.0 | 4.0 | 0.00 | 0.00 | 0.00 | 10 | 1014.6 |
| 20260502234519 | 70 | 0.0 | 4.0 | 0.00 | 0.00 | 0.00 | 11 | 1014.6 | |
| 20260502233518 | 70 | 158 | 1.0 | 2.0 | 0.00 | 0.00 | 0.00 | 10 | 1014.6 |
| 20260502232521 | 70 | 0.0 | 2.0 | 0.00 | 0.00 | 0.00 | 11 | 1014.7 | |
| 20260502231538 | 70 | 0.0 | 1.0 | 0.00 | 0.00 | 0.00 | 10 | 1014.7 | |
| 20260502230519 | 70 | 0.0 | 2.0 | 0.00 | 0.00 | 0.00 | 10 | 1014.7 | |
| 20260502225518 | 70 | 135 | 2.0 | 6.0 | 0.00 | 0.00 | 0.00 | 10 | 1014.8 |
| 20260502224518 | 70 | 158 | 1.0 | 4.0 | 0.00 | 0.00 | 0.00 | 10 | 1014.8 |
| 20260502223518 | 71 | 203 | 1.0 | 4.0 | 0.00 | 0.00 | 0.00 | 10 | 1015.3 |
| 20260502222538 | 71 | 0.0 | 2.0 | 0.00 | 0.00 | 0.00 | 12 | 1015.8 | |
| 20260502221519 | 71 | 203 | 3.0 | 9.0 | 0.00 | 0.00 | 0.00 | 11 | 1015.9 |
| 20260502220539 | 72 | 225 | 1.0 | 4.0 | 0.00 | 0.00 | 0.00 | 11 | 1016.1 |
| 20260502215519 | 72 | 158 | 1.0 | 3.0 | 0.00 | 0.00 | 0.00 | 12 | 1016.6 |
| 20260502214518 | 71 | 0.0 | 2.0 | 0.00 | 0.00 | 0.00 | 11 | 1016.4 | |
| 20260502213518 | 72 | 0 | 1.0 | 3.0 | 0.00 | 0.00 | 0.00 | 13 | 1017.1 |
| 20260502212538 | 72 | 158 | 1.0 | 6.0 | 0.00 | 0.00 | 0.00 | 12 | 1017.1 |
| 20260502211518 | 72 | 158 | 2.0 | 5.0 | 0.00 | 0.00 | 0.00 | 12 | 1017.4 |
| 20260502210518 | 73 | 158 | 2.0 | 6.0 | 0.00 | 0.00 | 0.00 | 13 | 1017.6 |
| 20260502205538 | 73 | 180 | 1.0 | 4.0 | 0.00 | 0.00 | 0.00 | 16 | 1018.2 |
| 20260502204558 | 72 | 203 | 2.0 | 6.0 | 0.00 | 0.00 | 0.00 | 15 | 1018.0 |
| 20260502203518 | 74 | 135 | 1.0 | 5.0 | 0.00 | 0.00 | 0.00 | 13 | 1018.5 |
| 20260502202518 | 72 | 158 | 2.0 | 6.0 | 0.00 | 0.00 | 0.00 | 13 | 1018.6 |
| 20260502201520 | 72 | 135 | 1.0 | 5.0 | 0.00 | 0.00 | 0.00 | 13 | 1018.8 |
| 20260502200520 | 72 | 135 | 3.0 | 5.0 | 0.00 | 0.00 | 0.00 | 12 | 1018.8 |
| 20260502195520 | 74 | 158 | 1.0 | 3.0 | 0.00 | 0.00 | 0.00 | 13 | 1019.6 |
| 20260502194521 | 72 | 158 | 1.0 | 3.0 | 0.00 | 0.00 | 0.00 | 14 | 1019.5 |
| 20260502193520 | 72 | 158 | 2.0 | 5.0 | 0.00 | 0.00 | 0.00 | 14 | 1019.5 |
| 20260502192520 | 71 | 158 | 2.0 | 4.0 | 0.00 | 0.00 | 0.00 | 15 | 1019.4 |
| 20260502191520 | 70 | 135 | 2.0 | 7.0 | 0.00 | 0.00 | 0.00 | 15 | 1019.5 |
| 20260502190520 | 70 | 135 | 2.0 | 4.0 | 0.00 | 0.00 | 0.00 | 15 | 1019.7 |
| 20260502185520 | 71 | 113 | 2.0 | 4.0 | 0.00 | 0.00 | 0.00 | 13 | 1020.1 |
| 20260502184520 | 70 | 270 | 1.0 | 3.0 | 0.00 | 0.00 | 0.00 | 16 | 1020.1 |
| 20260502183520 | 69 | 23 | 1.0 | 5.0 | 0.00 | 0.00 | 0.00 | 16 | 1020.2 |
| 20260502182520 | 70 | 180 | 2.0 | 4.0 | 0.00 | 0.00 | 0.00 | 16 | 1020.7 |
| 20260502181520 | 71 | 135 | 1.0 | 4.0 | 0.00 | 0.00 | 0.00 | 14 | 1020.9 |
| 20260502180520 | 71 | 90 | 1.0 | 2.0 | 0.00 | 0.00 | 0.00 | 15 | 1021.2 |
| 20260502170520 | 67 | 203 | 1.0 | 2.0 | 0.00 | 0.00 | 0.00 | 19 | 1021.8 |
| 20260502163520 | 65 | 158 | 1.0 | 3.0 | 0.00 | 0.00 | 0.00 | 23 | 1021.9 |
| 20260502162540 | 64 | 225 | 1.0 | 2.0 | 0.00 | 0.00 | 0.00 | 26 | 1022.7 |
| 20260502161540 | 62 | 135 | 1.0 | 3.0 | 0.00 | 0.00 | 0.00 | 29 | 1022.5 |
| 20260502160520 | 62 | 90 | 1.0 | 6.0 | 0.00 | 0.00 | 0.00 | 27 | 1022.2 |
| 20260502151520 | 56 | 0.0 | 2.0 | 0.00 | 0.00 | 0.00 | 38 | 1022.1 | |
| 20260502150520 | 54 | 158 | 1.0 | 3.0 | 0.00 | 0.00 | 0.00 | 37 | 1021.9 |
| 20260502130520 | 35 | 0.0 | 0.0 | 0.00 | 0.00 | 0.00 | 79 | 1021.1 | |
| 20260502123519 | 33 | 0.0 | 0.0 | 0.00 | 0.00 | 0.00 | 82 | 1020.5 | |
| 20260502122519 | 32 | 0.0 | 0.0 | 0.00 | 0.00 | 0.00 | 83 | 1020.4 | |
| 20260502121520 | 32 | 0.0 | 1.0 | 0.00 | 0.00 | 0.00 | 82 | 1020.4 | |
| 20260502120520 | 32 | 0.0 | 0.0 | 0.00 | 0.00 | 0.00 | 82 | 1020.4 | |
| 20260502115519 | 32 | 0.0 | 0.0 | 0.00 | 0.00 | 0.00 | 81 | 1020.7 | |
| 20260502114519 | 33 | 0.0 | 0.0 | 0.00 | 0.00 | 0.00 | 80 | 1020.8 | |
| 20260502113520 | 33 | 0.0 | 0.0 | 0.00 | 0.00 | 0.00 | 81 | 1020.8 | |
| 20260502112519 | 32 | 0.0 | 0.0 | 0.00 | 0.00 | 0.00 | 81 | 1020.5 | |
| 20260502111539 | 33 | 0.0 | 0.0 | 0.00 | 0.00 | 0.00 | 79 | 1020.8 | |
| 20260502110519 | 33 | 0.0 | 0.0 | 0.00 | 0.00 | 0.00 | 79 | 1020.9 | |
| 20260502105519 | 33 | 0.0 | 0.0 | 0.00 | 0.00 | 0.00 | 78 | 1020.9 | |
| 20260502104520 | 34 | 0.0 | 0.0 | 0.00 | 0.00 | 0.00 | 79 | 1020.9 | |
| 20260502103519 | 34 | 0.0 | 0.0 | 0.00 | 0.00 | 0.00 | 80 | 1020.7 | |
| 20260502102519 | 34 | 0.0 | 0.0 | 0.00 | 0.00 | 0.00 | 78 | 1021.1 | |
| 20260502100520 | 35 | 0.0 | 0.0 | 0.00 | 0.00 | 0.00 | 75 | 1021.4 | |
| 20260502091519 | 36 | 0.0 | 0.0 | 0.00 | 0.00 | 0.00 | 71 | 1021.6 | |
| 20260502090519 | 36 | 0.0 | 0.0 | 0.00 | 0.00 | 0.00 | 71 | 1021.5 | |
| 20260502071519 | 40 | 0.0 | 0.0 | 0.00 | 0.00 | 0.00 | 67 | 1021.9 | |
| 20260502070519 | 41 | 0.0 | 0.0 | 0.00 | 0.00 | 0.00 | 64 | 1021.9 | |
| 20260502065519 | 41 | 0.0 | 0.0 | 0.00 | 0.00 | 0.00 | 63 | 1022.3 | |
| 20260502064539 | 40 | 0.0 | 1.0 | 0.00 | 0.00 | 0.00 | 62 | 1021.9 | |
| 20260502063519 | 41 | 0.0 | 0.0 | 0.00 | 0.00 | 0.00 | 60 | 1022.3 | |
| 20260502062519 | 42 | 0.0 | 0.0 | 0.00 | 0.00 | 0.00 | 60 | 1021.6 | |
| 20260502061519 | 42 | 0.0 | 0.0 | 0.00 | 0.00 | 0.00 | 59 | 1022.0 | |
| 20260502060519 | 42 | 0.0 | 0.0 | 0.00 | 0.00 | 0.00 | 57 | 1022.0 | |
| 20260502055519 | 43 | 0.0 | 0.0 | 0.00 | 0.00 | 0.00 | 56 | 1021.9 | |
| 20260502054519 | 44 | 0.0 | 0.0 | 0.00 | 0.00 | 0.00 | 54 | 1021.9 | |
| 20260502053539 | 44 | 0.0 | 0.0 | 0.00 | 0.00 | 0.00 | 52 | 1022.2 | |
| 20260502052519 | 45 | 0.0 | 0.0 | 0.00 | 0.00 | 0.00 | 51 | 1021.9 | |
| 20260502051519 | 45 | 0.0 | 1.0 | 0.00 | 0.00 | 0.00 | 50 | 1021.9 | |
| 20260502050519 | 45 | 0.0 | 0.0 | 0.00 | 0.00 | 0.00 | 49 | 1021.9 | |
| 20260502045519 | 46 | 0.0 | 0.0 | 0.00 | 0.00 | 0.00 | 48 | 1022.0 | |
| 20260502044539 | 46 | 0.0 | 0.0 | 0.00 | 0.00 | 0.00 | 47 | 1021.9 | |
| 20260502043519 | 47 | 0.0 | 0.0 | 0.00 | 0.00 | 0.00 | 46 | 1021.8 | |
| 20260502042519 | 47 | 0.0 | 0.0 | 0.00 | 0.00 | 0.00 | 45 | 1021.8 | |
| 20260502041519 | 48 | 0.0 | 0.0 | 0.00 | 0.00 | 0.00 | 42 | 1022.0 | |
| 20260502040519 | 50 | 0.0 | 0.0 | 0.00 | 0.00 | 0.00 | 40 | 1022.3 | |
| 20260502035519 | 51 | 0.0 | 0.0 | 0.00 | 0.00 | 0.00 | 38 | 1021.8 | |
| 20260502034539 | 51 | 0.0 | 0.0 | 0.00 | 0.00 | 0.00 | 35 | 1021.8 | |
| 20260502033519 | 51 | 0.0 | 1.0 | 0.00 | 0.00 | 0.00 | 37 | 1021.6 | |
| 20260502032519 | 52 | 0.0 | 1.0 | 0.00 | 0.00 | 0.00 | 36 | 1021.1 | |
| 20260502031519 | 51 | 0.0 | 0.0 | 0.00 | 0.00 | 0.00 | 37 | 1021.0 | |
| 20260502030539 | 51 | 0.0 | 0.0 | 0.00 | 0.00 | 0.00 | 38 | 1020.9 | |
| 20260502025519 | 52 | 0.0 | 0.0 | 0.00 | 0.00 | 0.00 | 37 | 1019.6 | |
| 20260502024519 | 53 | 0.0 | 0.0 | 0.00 | 0.00 | 0.00 | 35 | 1019.8 | |
| 20260502023519 | 54 | 0.0 | 0.0 | 0.00 | 0.00 | 0.00 | 32 | 1019.7 | |
| 20260502022520 | 55 | 0.0 | 0.0 | 0.00 | 0.00 | 0.00 | 30 | 1018.4 | |
| 20260502021519 | 56 | 0.0 | 0.0 | 0.00 | 0.00 | 0.00 | 27 | 1018.7 |